Date,TemperatureHighF,TemperatureAvgF,TemperatureLowF,DewpointHighF,DewpointAvgF,DewpointLowF,HumidityHigh,HumidityAvg,HumidityLow,PressureMaxIn,PressureMinIn,WindSpeedMaxMPH,WindSpeedAvgMPH,GustSpeedMaxMPH,PrecipitationSumIn
2013-1-9,44,41,39,29,26,23,61,55,51,30.12,30.00,19,7,29,0.00
2013-1-10,39,33,24,26,22,20,87,64,52,30.54,30.13,20,6,28,0.00
2013-1-11,40,33,22,37,26,17,90,77,41,30.52,30.09,15,3,23,0.10
2013-1-12,56,41,31,45,37,29,95,86,65,30.13,30.05,4,0,10,0.00
2013-1-13,63,44,30,52,40,29,96,86,67,30.12,29.91,11,2,22,0.00
2013-1-14,61,43,30,54,36,21,95,77,57,30.25,29.81,15,4,21,0.13
2013-1-15,33,30,26,23,21,20,79,71,60,30.32,30.19,8,2,12,0.00
2013-1-16,35,30,25,32,26,20,93,85,62,30.19,29.80,10,1,16,0.01
2013-1-17,33,28,19,25,20,10,75,70,64,30.09,29.84,11,4,17,0.00
2013-1-18,25,16,10,10,5,-3,79,62,45,30.41,30.02,12,3,19,0.00
2013-1-19,48,40,26,25,17,8,46,39,36,30.24,29.77,15,4,24,0.05
2013-1-20,47,36,20,30,18,6,77,49,29,29.93,29.54,17,6,34,0.00
2013-1-21,22,19,16,15,9,3,84,66,51,30.01,29.78,8,2,19,0.00
2013-1-22,16,10,4,11,-6,-100,82,54,42,30.11,29.77,11,-7,20,0.00
2013-1-23,10,4,-2,-4,-6,-9,81,62,46,30.18,30.09,10,2,21,0.00
2013-1-24,13,4,-6,1,-5,-11,82,68,43,30.39,30.14,17,4,26,0.00
2013-1-25,20,12,5,8,1,-6,83,64,36,30.39,30.05,11,2,21,0.00
2013-1-26,18,12,7,9,4,1,84,70,52,30.35,30.04,12,4,23,0.00
2013-1-27,27,18,10,9,5,0,80,59,32,30.51,30.34,12,3,25,0.00
2013-1-28,42,27,12,38,21,6,94,79,62,30.48,29.93,9,2,19,0.06
2013-1-29,49,42,36,41,37,34,93,84,61,30.09,29.94,13,2,18,0.10
2013-1-30,64,55,43,54,50,41,94,84,69,29.96,29.28,17,3,32,0.35
2013-1-31,54,36,22,50,26,6,97,68,44,29.60,28.88,17,5,31,0.68
2013-2-1,22,19,15,15,8,3,86,62,50,30.13,29.60,12,5,23,0.00
2013-2-2,24,18,14,12,7,3,81,63,42,30.19,30.01,13,2,13,0.00
2013-2-3,25,18,12,18,13,9,89,79,59,30.01,29.77,6,0,7,0.00
2013-2-4,21,17,15,15,8,4,89,69,49,29.92,29.76,12,4,21,0.00
2013-2-5,29,22,16,19,15,11,84,75,60,29.97,29.86,7,1,11,0.00
2013-2-6,31,24,16,20,13,-1,87,62,41,30.33,29.87,13,4,22,0.00
2013-2-7,31,20,11,13,6,4,80,57,40,30.48,30.32,9,2,17,0.00
2013-2-8,27,24,21,25,20,13,91,85,66,30.31,29.78,10,3,16,0.00
2013-2-9,22,18,11,20,11,4,92,76,50,30.34,29.81,19,7,26,0.00
2013-2-10,41,21,3,12,4,-4,83,54,18,30.49,30.23,7,2,15,0.18
2013-2-11,50,40,32,42,29,1,91,69,23,30.22,29.61,22,4,28,0.16
2013-2-12,35,33,29,28,24,18,76,70,64,29.90,29.63,17,6,32,0.00
2013-2-13,42,32,28,23,21,19,73,64,43,29.88,29.69,9,2,18,0.00
2013-2-14,44,31,22,27,21,18,85,69,43,29.93,29.68,7,1,13,0.00
2013-2-15,47,39,30,29,26,21,92,61,43,29.94,29.86,11,2,15,0.00
2013-2-16,29,24,21,27,17,9,92,73,60,29.94,29.79,9,3,15,0.01
2013-2-17,20,15,9,12,3,-1,70,59,43,29.91,29.66,22,8,32,0.00
2013-2-18,28,16,8,9,4,0,75,59,37,30.20,29.92,19,5,27,0.01
2013-2-19,43,31,16,33,23,9,92,73,43,30.15,29.61,12,3,28,0.07
2013-2-20,30,22,18,25,12,5,88,66,49,29.88,29.64,16,6,28,0.00
2013-2-21,21,18,16,12,10,8,83,71,61,30.38,29.87,17,7,24,0.00
2013-2-22,35,26,16,23,18,13,85,73,55,30.42,30.21,8,2,15,0.00
2013-2-23,39,34,30,33,30,23,93,85,78,30.22,29.82,12,4,19,0.00
2013-2-24,36,32,27,33,28,21,96,86,69,29.96,29.74,15,3,19,0.02
2013-2-25,36,31,27,27,25,22,88,78,63,30.23,29.96,11,3,13,0.00
2013-2-26,39,30,19,27,23,17,92,77,59,30.28,29.98,8,2,13,0.00
2013-2-27,38,34,28,36,32,26,96,93,91,29.97,29.51,9,2,14,1.04
2013-2-28,40,35,32,36,32,28,97,88,68,29.59,29.52,8,1,11,0.41
2013-3-1,35,32,27,28,26,22,86,81,69,29.76,29.58,16,4,20,0.01
2013-3-2,30,26,21,22,21,16,84,81,73,29.76,29.70,11,4,17,0.00
2013-3-3,26,22,18,20,16,13,81,78,73,29.77,29.69,10,5,17,0.00
2013-3-4,28,24,20,21,18,15,87,79,69,29.91,29.76,16,6,26,0.01
2013-3-5,40,30,24,26,23,20,87,77,56,30.04,29.91,9,3,15,0.01
2013-3-6,36,33,30,30,26,23,86,78,69,30.06,29.96,10,3,18,0.01
2013-3-7,32,30,27,28,25,21,94,83,70,30.11,30.03,8,3,16,0.02
2013-3-8,38,30,25,33,27,23,96,89,76,30.27,30.05,11,4,15,0.12
2013-3-9,52,32,17,29,22,15,92,71,28,30.34,30.26,6,2,12,0.29
2013-3-10,53,37,18,30,23,15,90,61,33,30.34,30.17,8,2,14,0.01
2013-3-11,51,45,39,42,29,21,90,56,31,30.19,29.96,14,3,22,0.00
2013-3-12,51,45,35,49,42,32,94,90,83,29.96,29.62,14,4,19,1.97
2013-3-13,40,34,28,32,25,20,89,71,45,29.81,29.75,9,3,16,0.00
2013-3-14,28,22,17,23,11,7,81,63,53,29.89,29.78,18,7,27,0.00
2013-3-15,33,28,20,26,17,8,83,65,47,29.92,29.67,15,4,21,0.00
2013-3-16,33,27,20,25,16,8,82,64,36,29.89,29.74,13,3,24,0.00
2013-3-17,30,24,16,18,10,5,78,57,36,30.31,29.89,15,4,22,0.00
2013-3-18,34,22,10,23,11,2,92,67,28,30.41,30.02,11,2,16,0.00
2013-3-19,37,30,25,33,28,22,94,91,85,30.01,29.67,10,3,20,0.19
2013-3-20,34,26,23,22,18,15,88,71,49,29.80,29.74,12,3,19,0.02
2013-3-21,34,22,9,20,11,5,88,66,35,29.79,29.62,9,2,18,0.02
2013-3-22,31,25,15,22,17,11,90,74,62,29.82,29.68,12,4,22,0.01
2013-3-23,36,30,26,24,19,16,88,65,47,29.89,29.76,19,7,27,0.01
2013-3-24,40,32,26,23,20,19,75,64,46,29.90,29.74,10,4,16,0.00
2013-3-25,39,33,27,25,23,22,82,68,52,29.74,29.49,8,2,15,0.00
2013-3-26,40,34,30,30,25,19,87,70,45,29.85,29.60,8,3,16,0.00
2013-3-27,44,34,21,27,22,19,90,65,38,29.95,29.84,11,3,19,0.00
2013-3-28,39,36,32,31,29,26,85,77,66,30.11,29.93,11,4,15,0.00
2013-3-29,42,36,28,29,27,25,88,71,54,30.13,30.06,8,3,15,0.00
2013-3-30,50,39,29,29,24,18,90,59,30,30.13,30.05,10,3,15,0.00
2013-3-31,51,37,24,36,27,21,92,69,39,30.11,29.71,11,2,17,0.30
2013-4-1,51,37,26,40,29,12,96,74,44,29.83,29.55,15,4,24,0.02
2013-4-2,32,26,22,17,12,8,69,55,38,30.00,29.81,16,6,29,0.00
2013-4-3,35,28,23,20,15,12,88,60,42,30.28,29.98,19,7,29,0.00
2013-4-4,53,38,22,21,16,11,79,46,23,30.34,29.97,11,3,17,0.00
2013-4-5,50,41,29,24,18,5,67,42,21,29.97,29.73,16,4,24,0.00
2013-4-6,46,33,24,22,11,-1,79,43,18,30.28,29.94,15,5,21,0.00
2013-4-7,56,47,30,38,24,13,58,42,30,30.24,29.90,16,5,28,0.00
2013-4-8,66,51,37,44,36,34,87,60,35,30.05,29.91,11,2,16,0.00
2013-4-9,64,59,51,49,43,38,77,57,39,29.95,29.82,13,4,24,0.00
2013-4-10,60,52,46,51,48,40,96,86,67,29.96,29.76,6,2,13,0.52
2013-4-11,49,40,32,47,35,23,95,82,52,30.07,29.82,6,2,13,0.08
2013-4-12,37,35,33,36,34,31,95,93,88,30.04,29.73,13,4,23,0.49
2013-4-13,49,42,35,35,33,30,97,74,53,29.91,29.78,8,2,14,0.01
2013-4-14,43,38,29,34,27,24,90,67,47,30.22,29.89,9,3,20,0.00
2013-4-15,62,45,28,36,30,25,91,61,36,30.32,30.21,8,2,16,0.00
2013-4-16,61,53,44,54,44,29,91,71,55,30.28,30.02,14,4,24,0.21
2013-4-17,60,49,37,52,35,28,91,62,33,30.29,30.08,13,4,16,0.03
2013-4-18,60,48,34,51,37,30,92,68,42,30.29,30.02,14,4,23,0.00
2013-4-19,67,61,50,60,55,48,92,83,71,30.01,29.52,11,4,25,1.13
2013-4-20,50,42,32,47,30,18,94,64,41,30.26,29.62,13,5,21,0.19
2013-4-21,48,36,28,25,19,15,78,54,31,30.63,30.27,13,4,21,0.00
2013-4-22,54,41,27,31,24,18,84,55,29,30.66,30.47,8,2,19,0.00
2013-4-23,51,39,31,39,33,26,91,78,65,30.47,30.12,7,2,11,0.00
2013-4-24,72,53,31,51,40,29,96,67,37,30.11,29.72,11,2,15,0.00
2013-4-25,61,46,35,51,29,22,81,55,25,30.24,29.73,20,5,26,0.02
2013-4-26,57,43,29,34,28,26,90,60,31,30.42,30.24,9,2,13,0.00
2013-4-27,64,47,28,36,29,17,90,55,24,30.44,30.27,5,1,17,0.00
2013-4-28,70,54,33,39,34,30,89,52,27,30.29,30.09,6,2,13,0.00
2013-4-29,54,50,47,45,41,32,88,72,45,30.17,30.11,12,4,25,0.04
2013-4-30,70,57,49,45,41,28,82,59,30,30.26,30.15,8,2,18,0.00
2013-5-1,72,56,36,38,34,26,89,51,18,30.41,30.26,6,1,11,0.00
2013-5-2,77,59,35,43,37,32,90,51,22,30.41,30.25,6,1,11,0.00
2013-5-3,68,57,44,43,34,25,75,44,20,30.38,30.27,10,2,12,0.00
2013-5-4,73,56,36,42,38,34,91,57,28,30.31,30.16,7,2,12,0.00
2013-5-5,71,56,36,42,31,17,87,47,13,30.22,30.12,8,2,11,0.00
2013-5-6,74,56,32,47,37,30,92,56,24,30.19,30.06,8,2,11,0.00
2013-5-7,77,61,41,53,46,39,93,62,29,30.12,30.01,7,1,10,0.00
2013-5-8,61,59,53,58,55,51,95,88,75,30.07,29.91,9,1,11,0.48
2013-5-9,64,56,48,55,51,47,97,86,60,29.95,29.84,3,1,7,0.06
2013-5-10,76,61,44,57,50,44,98,70,36,29.96,29.81,8,1,11,0.00
2013-5-11,65,60,54,60,56,52,92,86,71,29.82,29.62,6,1,15,0.52
2013-5-12,56,50,41,51,38,24,92,67,31,29.82,29.61,15,3,19,0.00
2013-5-13,45,40,31,29,26,23,87,59,50,30.07,29.82,13,4,19,0.00
2013-5-14,53,41,28,31,26,18,93,60,28,30.11,30.01,8,2,13,0.00
2013-5-15,69,49,30,54,39,27,91,71,51,30.05,29.60,16,3,30,0.05
2013-5-16,75,65,52,46,36,33,65,36,23,29.80,29.66,18,5,22,0.00
2013-5-17,66,55,44,42,38,34,86,55,34,30.20,29.80,12,4,17,0.00
2013-5-18,68,54,36,46,41,34,94,66,35,30.27,30.19,9,2,15,0.00
2013-5-19,57,54,47,53,50,44,91,86,80,30.24,30.09,11,3,17,0.00
2013-5-20,82,66,52,65,58,51,96,77,43,30.10,29.89,8,2,18,0.00
2013-5-21,89,71,53,66,57,-100,96,68,36,29.92,29.73,7,-19,14,0.00
2013-5-22,82,72,62,69,64,59,95,77,55,29.79,29.72,9,2,20,0.55
2013-5-23,75,68,60,65,59,51,95,75,44,29.77,29.66,12,2,18,0.61
2013-5-24,60,48,37,59,46,36,97,94,88,29.95,29.60,13,4,17,0.73
2013-5-25,42,39,37,40,38,36,95,93,91,29.96,29.90,18,7,23,0.87
2013-5-26,54,45,36,40,37,34,92,74,48,30.15,29.87,14,6,30,0.02
2013-5-27,68,50,30,42,34,29,96,62,25,30.21,30.12,11,2,18,0.00
2013-5-28,65,51,36,53,43,34,95,77,35,30.20,30.08,8,2,13,0.07
2013-5-29,81,67,54,65,60,53,97,82,54,30.09,29.91,9,2,27,1.49
2013-5-30,86,71,55,69,62,55,98,77,43,30.07,30.01,9,2,14,0.00
2013-5-31,90,74,55,67,60,54,95,67,34,30.09,29.91,6,1,12,0.00
2013-6-1,88,75,58,66,60,56,94,63,39,29.94,29.80,7,1,16,0.00
2013-6-3,70,63,49,60,52,45,93,69,48,29.88,29.78,12,4,15,0.00
2013-6-4,68,56,45,44,39,32,84,57,27,30.11,29.88,20,5,23,0.00
2013-6-5,73,57,38,48,42,36,94,63,28,30.18,30.05,11,1,13,0.00
2013-6-6,68,58,50,53,48,37,90,73,37,30.10,29.96,8,2,16,0.26
2013-6-7,56,55,53,55,53,50,96,93,87,29.96,29.70,11,4,17,0.97
2013-6-8,70,60,52,58,55,51,97,85,60,30.02,29.66,8,2,14,0.26
2013-6-9,76,62,47,59,52,47,97,74,44,30.16,30.02,7,2,12,0.00
2013-6-10,61,57,50,59,55,48,96,94,91,30.16,29.82,4,1,13,1.15
2013-6-11,71,61,57,64,55,-100,97,87,70,29.80,29.55,10,-19,19,0.06
2013-6-12,68,59,50,54,51,48,94,76,53,29.83,29.61,16,4,26,0.00
2013-6-13,56,52,46,54,50,45,96,95,93,29.81,29.57,10,2,15,1.63
2013-6-14,68,56,48,56,52,45,96,87,56,29.88,29.63,8,3,12,0.30
2013-6-15,73,60,46,54,48,43,97,68,37,29.97,29.88,10,3,16,0.00
2013-6-16,72,60,44,60,52,43,95,78,49,29.95,29.69,11,2,18,0.00
2013-6-17,80,65,54,62,57,51,97,77,36,29.88,29.77,9,2,35,0.23
2013-6-18,73,60,50,63,56,46,97,86,64,29.92,29.83,8,2,12,0.31
2013-6-19,70,58,45,50,45,40,97,67,35,30.16,29.91,9,2,14,0.00
2013-6-20,78,60,40,57,47,39,95,67,35,30.24,30.15,7,1,14,0.00
2013-6-21,79,65,49,65,57,48,96,78,44,30.22,30.16,6,1,10,0.00
2013-6-22,83,70,53,64,58,52,96,71,39,30.18,30.04,6,1,14,0.00
2013-6-23,89,78,66,68,64,60,89,65,40,30.09,29.94,7,2,13,0.01
2013-6-24,87,72,62,68,64,60,95,78,49,29.99,29.88,8,2,16,0.15
2013-6-25,86,72,57,68,63,56,97,75,44,29.95,29.73,8,2,16,0.05
2013-6-26,81,71,62,67,64,61,95,81,60,29.79,29.72,8,1,13,0.00
2013-6-27,81,69,58,69,64,57,97,83,58,29.79,29.48,4,1,9,0.48
2013-6-28,80,72,64,66,63,61,96,76,57,29.47,29.34,10,2,19,0.68
2013-6-29,78,69,58,63,60,56,96,76,49,29.64,29.43,9,1,14,0.00
2013-6-30,83,69,58,67,63,57,95,83,53,29.87,29.64,7,1,11,0.14
2013-7-1,76,68,61,68,65,60,98,91,75,29.97,29.86,7,1,11,0.55
2013-7-2,81,73,67,71,68,66,98,86,68,30.08,29.97,7,1,12,0.10
2013-7-3,85,76,68,71,67,65,94,76,59,30.14,30.06,6,1,9,0.00
2013-7-4,87,77,64,72,67,63,96,75,54,30.16,30.05,7,1,12,0.00
2013-7-5,89,80,71,71,65,-100,89,66,47,30.11,29.98,10,-8,14,0.00
2013-7-6,85,78,68,69,68,66,91,72,54,30.04,29.96,8,2,15,0.00
2013-7-7,89,77,65,72,68,63,96,75,46,30.01,29.84,9,1,13,0.00
2013-7-8,84,74,67,70,66,65,94,79,54,29.99,29.88,7,2,11,0.04
2013-7-9,84,74,64,70,66,63,97,79,51,30.02,29.92,8,1,10,0.00
2013-7-10,82,74,67,72,68,65,94,82,65,29.93,29.73,5,1,13,0.10
2013-7-11,79,72,62,69,62,55,93,73,47,29.93,29.71,9,2,17,0.00
2013-7-12,77,68,57,63,59,55,92,74,58,30.11,29.93,7,2,11,0.00
2013-7-13,78,68,60,70,64,57,96,88,72,30.26,30.11,5,1,7,0.18
2013-7-14,85,74,64,74,68,63,97,83,61,30.29,30.18,5,1,8,0.00
2013-7-15,87,76,65,71,66,64,97,76,48,30.21,30.11,9,2,14,0.00
2013-7-16,88,75,61,70,64,60,96,73,41,30.19,30.11,9,2,13,0.00
2013-7-17,92,77,62,71,66,61,96,72,40,30.18,30.00,5,1,11,0.00
2013-7-18,91,78,68,74,70,66,96,77,47,30.01,29.90,8,2,12,0.01
2013-7-19,92,80,65,73,68,63,96,69,45,29.92,29.70,11,2,18,0.01
2013-7-20,84,75,63,70,66,59,89,73,55,29.80,29.65,8,2,16,0.01
2013-7-21,82,69,56,66,60,54,94,76,49,29.94,29.81,6,1,10,0.00
2013-7-22,82,70,60,68,62,51,95,78,34,29.94,29.78,7,1,11,1.18
2013-7-23,81,71,63,70,66,62,98,86,63,29.77,29.51,9,1,12,0.24
2013-7-24,72,63,54,63,57,49,97,80,56,29.96,29.58,13,3,16,0.02
2013-7-25,73,60,49,57,51,45,92,73,54,30.05,29.96,8,2,11,0.00
2013-7-26,79,64,52,61,56,51,96,77,47,30.04,29.96,8,2,10,0.00
2013-7-27,80,67,49,62,56,48,96,72,49,30.02,29.90,8,2,13,0.00
2013-7-28,70,67,63,66,62,59,93,85,75,29.92,29.87,7,2,13,0.33
2013-7-29,79,68,56,63,59,52,97,75,42,30.07,29.90,5,1,9,0.00
2013-7-30,74,60,49,58,54,48,96,81,54,30.14,30.06,7,1,11,0.00
2013-7-31,77,64,51,61,56,50,97,77,51,30.14,30.00,4,1,7,0.00
2013-8-1,68,62,56,63,59,55,98,90,81,30.00,29.79,8,2,19,0.16
2013-8-2,77,65,56,61,58,53,98,80,45,29.86,29.78,7,2,13,0.13
2013-8-3,76,65,53,59,55,50,97,72,42,29.85,29.78,10,2,14,0.00
2013-8-4,71,60,50,57,51,49,96,76,47,29.94,29.82,13,3,20,0.02
2013-8-5,72,60,50,51,47,43,92,68,38,30.03,29.93,17,3,17,0.00
2013-8-6,74,61,42,56,50,41,95,70,45,30.09,30.04,9,1,12,0.00
2013-8-7,68,64,60,63,60,55,93,85,75,30.08,29.99,9,2,15,0.04
2013-8-8,80,71,62,69,66,61,97,83,66,29.99,29.90,6,2,15,0.02
2013-8-9,76,71,68,72,69,66,97,93,81,29.91,29.73,5,1,11,2.06
2013-8-10,75,66,53,66,57,51,96,75,46,30.02,29.82,9,3,19,0.00
2013-8-11,75,61,45,60,52,44,96,75,48,30.09,29.99,7,1,12,0.01
2013-8-12,76,64,53,64,56,51,96,78,50,30.03,29.89,4,0,7,0.00
2013-8-13,77,65,59,64,61,56,95,86,63,29.89,29.63,7,2,15,0.22
2013-8-14,66,57,50,56,49,46,90,76,58,30.00,29.72,15,5,24,0.01
2013-8-15,69,57,44,56,48,43,96,76,46,30.12,30.00,8,2,13,0.00
2013-8-16,74,60,46,58,51,45,96,76,45,30.20,30.11,6,1,11,0.00
2013-8-17,76,61,48,59,53,47,97,77,46,30.27,30.20,4,1,9,0.00
2013-8-18,72,61,52,61,56,50,96,83,61,30.25,30.10,3,0,5,0.00
2013-8-19,76,63,53,62,56,52,96,81,52,30.10,29.99,7,1,11,0.00
2013-8-20,81,64,51,64,56,49,97,77,43,30.13,30.03,6,1,13,0.00
2013-8-21,84,67,50,65,57,49,96,75,40,30.16,30.01,6,1,10,0.00
2013-8-22,84,70,54,66,60,53,96,73,43,30.04,29.81,6,2,11,0.00
2013-8-23,74,66,55,64,56,50,92,72,46,30.12,29.85,8,2,14,0.00
2013-8-24,77,60,44,55,49,42,95,71,33,30.33,30.12,5,1,9,0.00
2013-8-25,80,62,44,58,50,43,96,70,33,30.38,30.16,7,1,10,0.00
2013-8-26,73,67,61,67,62,55,97,85,66,30.17,29.84,9,1,14,0.46
2013-8-27,80,68,62,68,64,61,97,88,62,29.89,29.80,7,2,10,0.07
2013-8-28,83,68,57,68,63,57,98,84,53,29.89,29.80,7,1,9,0.00
2013-8-29,79,67,60,67,63,60,98,87,63,29.98,29.88,5,1,8,0.00
2013-8-30,85,69,57,68,61,56,98,79,46,29.97,29.79,6,1,9,0.01
2013-8-31,84,72,65,70,66,63,96,83,57,29.79,29.68,10,1,14,0.19
2013-9-1,78,69,62,72,67,61,98,92,75,29.80,29.75,5,1,8,0.20
2013-9-2,77,69,63,70,66,62,98,91,75,29.77,29.62,5,1,15,0.26
2013-9-3,72,63,58,62,58,53,98,83,53,29.83,29.69,7,2,13,0.01
2013-9-4,76,64,54,57,53,48,94,71,42,29.93,29.83,12,3,15,0.00
2013-9-5,66,58,46,58,47,36,97,71,35,30.15,29.87,10,3,19,0.01
2013-9-6,67,51,38,48,40,35,97,72,35,30.24,30.11,5,1,9,0.00
2013-9-7,76,57,40,58,47,39,95,75,28,30.12,29.86,12,1,12,0.02
2013-9-8,66,59,44,60,50,41,95,77,44,30.09,29.78,14,3,22,0.02
2013-9-9,71,54,36,56,44,34,95,72,41,30.21,30.06,7,1,17,0.00
2013-9-10,85,73,64,71,66,57,93,78,63,30.07,29.95,11,3,17,0.24
2013-9-11,92,81,68,74,70,66,95,72,47,30.04,29.90,10,2,20,0.00
2013-9-12,83,72,62,72,66,61,97,85,62,29.82,29.63,7,1,13,0.37
2013-9-13,65,56,49,61,49,-100,97,86,73,29.82,29.58,8,-28,17,0.04
2013-9-14,56,50,42,46,44,40,93,79,64,30.10,29.83,11,3,15,0.04
2013-9-15,69,51,38,54,44,37,98,79,35,30.19,30.05,6,1,8,0.01
2013-9-16,60,53,45,52,48,40,96,84,72,30.26,30.02,10,2,13,0.07
2013-9-17,62,48,35,43,38,34,95,73,40,30.43,30.27,7,2,10,0.07
2013-9-18,72,51,33,51,42,31,95,76,42,30.34,30.14,4,1,8,0.00
2013-9-19,78,55,37,56,46,36,95,76,41,30.17,30.02,4,0,7,0.00
2013-9-20,78,59,40,57,49,39,95,73,30,30.08,29.92,8,1,10,0.00
2013-9-21,70,63,54,60,55,45,93,77,46,29.93,29.59,14,3,23,0.44
2013-9-22,58,53,47,56,46,39,96,78,60,29.87,29.59,14,4,21,0.49
2013-9-23,57,47,39,41,38,36,90,72,53,30.05,29.87,15,5,18,0.00
2013-9-24,66,52,41,42,38,34,86,64,30,30.04,29.88,11,4,18,0.00
2013-9-25,69,52,36,51,43,35,96,76,46,29.96,29.86,7,1,12,0.00
2013-9-26,65,50,41,50,45,40,97,83,53,30.13,29.97,6,1,13,0.00
2013-9-27,63,50,41,51,46,39,97,84,63,30.27,30.13,5,1,10,0.00
2013-9-28,71,53,40,50,45,39,97,78,41,30.34,30.24,3,1,9,0.01
2013-9-29,72,53,39,53,46,38,97,80,50,30.24,30.05,4,1,9,0.01
2013-9-30,72,53,39,53,46,38,97,80,46,30.08,29.95,4,1,8,0.00
2013-10-1,73,54,42,56,48,40,97,81,50,30.02,29.89,5,1,11,0.01
2013-10-2,76,59,43,60,52,42,97,77,53,30.00,29.90,13,2,16,0.01
2013-10-3,75,57,42,49,41,-100,94,63,23,30.09,30.00,5,-10,11,0.00
2013-10-4,76,62,51,64,57,47,97,85,64,30.05,29.95,5,1,10,0.32
2013-10-5,74,64,60,64,61,59,98,90,67,30.03,29.97,6,1,8,0.01
2013-10-6,68,62,60,61,59,57,96,90,79,30.03,29.97,16,4,19,0.12
2013-10-7,68,61,52,65,57,42,94,85,70,29.97,29.63,11,3,21,1.40
2013-10-8,63,51,39,44,41,38,94,69,43,30.35,29.90,14,4,18,0.00
2013-10-9,65,47,32,43,36,31,96,73,31,30.44,30.33,7,1,9,0.00
2013-10-10,60,47,36,43,37,21,95,74,22,30.33,30.16,3,0,5,0.00
2013-10-11,73,54,41,53,45,38,90,73,42,30.16,30.04,6,1,9,0.00
2013-10-12,70,52,34,52,45,33,95,79,52,30.29,30.13,10,2,14,0.00
2013-10-13,68,55,45,50,47,43,95,76,45,30.35,30.28,6,1,12,0.00
2013-10-14,71,54,39,52,45,38,95,76,40,30.32,30.19,6,1,8,0.00
2013-10-15,71,60,52,55,52,46,95,77,55,30.23,30.05,5,1,10,0.00
2013-10-16,64,58,53,52,49,37,85,73,53,30.06,29.83,7,2,13,0.00
2013-10-17,72,62,54,58,50,38,92,68,31,29.83,29.55,10,2,15,0.08
2013-10-18,61,53,39,58,44,37,91,71,42,29.91,29.55,14,3,18,0.25
2013-10-19,60,47,34,47,39,33,95,75,43,29.94,29.69,8,2,15,0.07
2013-10-20,55,47,38,45,35,31,86,64,43,30.01,29.68,12,4,19,0.00
2013-10-21,64,49,33,40,36,31,95,64,38,30.10,29.89,10,2,20,0.00
2013-10-22,57,50,34,45,39,32,91,68,52,29.88,29.68,10,2,16,0.00
2013-10-23,47,38,31,35,32,29,94,79,53,29.77,29.60,6,1,14,0.02
2013-10-24,44,38,32,34,28,23,93,68,45,29.91,29.72,11,3,19,0.00
2013-10-25,44,38,34,32,30,28,83,71,57,30.15,29.91,15,3,20,0.00
2013-10-26,49,42,34,32,26,23,79,55,38,30.14,29.80,10,3,26,0.00
2013-10-27,46,42,32,33,29,27,85,63,49,30.06,29.78,13,4,18,0.00
2013-10-28,50,39,29,34,31,27,90,73,52,30.33,30.05,11,2,16,0.00
2013-10-29,46,35,28,28,24,20,92,67,35,30.41,30.33,6,2,11,0.00
2013-10-30,58,42,32,43,36,26,95,81,53,30.32,30.15,6,1,9,0.02
2013-10-31,60,48,30,56,45,29,97,90,81,30.21,29.67,10,2,22,0.54
2013-11-1,65,59,44,59,48,40,91,69,49,29.66,29.39,15,4,25,0.44
2013-11-2,59,46,36,44,39,35,96,81,53,29.75,29.58,6,1,12,0.02
2013-11-3,45,33,26,40,28,19,93,83,72,30.45,29.76,10,3,17,0.01
2013-11-4,41,29,19,22,18,15,91,66,38,30.65,30.45,7,1,9,0.01
2013-11-5,53,41,30,37,31,18,82,67,51,30.64,30.41,9,2,14,0.00
2013-11-6,58,50,40,48,42,36,87,75,58,30.43,29.94,12,3,19,0.00
2013-11-7,59,47,35,51,42,29,91,83,68,29.93,29.74,10,4,24,0.27
2013-11-8,37,35,32,30,27,23,90,75,60,30.13,29.82,15,6,24,0.00
2013-11-9,44,38,33,28,26,25,78,65,51,30.22,29.90,13,3,21,0.00
2013-11-10,47,43,37,36,32,28,83,67,52,29.96,29.76,21,6,32,0.04
2013-11-11,46,40,34,33,27,21,89,61,38,30.12,29.91,18,4,33,0.00
2013-11-12,39,27,22,33,20,14,90,74,66,30.25,29.90,16,6,24,0.00
2013-11-13,31,25,19,18,14,12,76,65,50,30.35,30.17,11,4,18,0.00
2013-11-14,52,41,31,24,13,4,60,34,16,30.16,30.06,12,4,19,0.00
2013-11-15,62,42,27,26,18,8,73,43,14,30.18,30.07,4,1,10,0.00
2013-11-16,59,45,33,39,32,23,91,65,26,30.29,30.18,9,1,16,0.00
2013-11-17,57,52,43,53,48,38,92,87,71,30.20,29.65,16,4,20,0.04
2013-11-18,59,52,38,55,38,26,91,63,38,29.70,29.46,13,4,25,0.49
2013-11-19,38,32,27,27,22,19,79,69,58,30.33,29.70,20,7,28,0.00
2013-11-20,40,26,18,19,14,3,84,64,21,30.62,30.34,7,2,13,0.00
2013-11-21,43,31,14,34,23,12,90,75,50,30.62,30.35,6,1,11,0.00
2013-11-22,50,44,39,45,41,34,96,88,77,30.35,29.86,10,2,18,0.10
2013-11-23,41,30,18,36,21,6,91,71,49,29.99,29.83,20,6,25,0.01
2013-11-24,19,16,12,10,5,-1,78,63,41,30.30,29.90,19,9,33,0.00
2013-11-25,34,24,14,14,10,3,80,58,29,30.41,30.22,12,4,19,0.00
2013-11-26,39,32,27,37,28,7,94,84,36,30.25,29.85,9,2,21,0.82
2013-11-27,50,36,26,49,35,21,97,93,82,29.82,29.38,11,3,17,1.31
2013-11-28,25,20,14,21,13,11,90,77,62,30.44,29.62,13,2,17,0.00
2013-11-29,26,19,11,18,14,8,92,81,62,30.74,30.44,5,1,10,0.01
2013-11-30,31,19,6,24,12,3,89,73,49,30.76,30.35,10,2,17,0.00
2013-12-1,42,35,29,32,28,24,92,78,61,30.34,29.99,14,1,19,0.03
2013-12-2,41,34,28,35,31,27,94,89,78,29.99,29.86,3,0,4,0.01
2013-12-3,46,33,26,36,30,25,95,88,69,30.00,29.87,7,1,12,0.00
2013-12-4,51,34,23,41,30,21,94,84,57,30.12,29.99,4,0,11,0.01
2013-12-5,60,52,45,54,48,41,94,86,71,30.10,29.84,11,3,22,0.11
2013-12-6,58,38,28,52,35,27,94,88,76,30.12,29.80,9,4,14,0.15
2013-12-7,32,27,21,27,21,14,94,79,66,30.48,30.08,11,4,20,0.05
2013-12-8,26,22,18,20,17,14,88,78,66,30.57,30.39,6,1,9,0.00
2013-12-9,42,32,22,37,28,19,93,85,75,30.38,29.89,18,4,19,0.20
2013-12-10,34,28,22,28,22,11,91,78,64,29.99,29.79,11,3,14,0.00
2013-12-11,24,22,18,17,13,11,87,69,63,30.19,29.99,11,4,19,0.00
2013-12-12,18,15,10,13,6,3,82,67,53,30.29,30.04,16,3,19,0.00
2013-12-13,24,20,15,16,11,6,82,69,59,30.34,29.98,14,4,26,0.00
2013-12-14,18,14,12,16,10,8,92,83,73,30.49,29.99,6,2,11,0.00
2013-12-15,29,25,18,26,21,15,94,85,71,29.97,29.55,9,4,21,0.00
2013-12-16,25,17,4,18,8,1,86,68,55,30.18,29.71,14,4,21,0.00
2013-12-17,24,14,-3,22,11,-7,92,87,80,30.21,29.98,17,2,18,0.00
2013-12-18,29,23,14,22,18,11,93,84,66,30.08,29.95,12,2,17,0.02
2013-12-19,42,34,24,28,23,14,87,67,50,30.09,29.93,13,3,32,0.22
2013-12-20,53,46,32,45,38,29,87,72,52,30.06,29.87,10,3,18,0.18
2013-12-21,58,54,48,52,49,44,96,82,73,29.88,29.77,9,2,17,0.23
2013-12-22,66,61,55,58,53,49,90,74,59,29.85,29.64,16,4,23,0.06
2013-12-23,59,43,30,50,40,22,96,87,69,30.10,29.84,13,3,17,0.47
2013-12-24,29,24,14,22,17,6,86,76,62,30.28,30.07,13,4,18,0.00
2013-12-25,22,15,8,9,5,2,78,65,48,30.50,30.28,12,3,17,0.00
2013-12-26,29,25,20,24,17,8,84,71,54,30.37,30.10,13,3,20,0.00
2013-12-27,30,26,20,22,20,14,90,76,62,30.27,30.20,11,2,23,0.00
2013-12-28,45,35,25,29,26,20,91,69,50,30.20,30.01,16,3,25,0.00
2013-12-29,47,33,28,37,31,26,96,91,56,30.01,29.55,8,1,11,0.55
2013-12-30,35,23,9,33,19,5,96,83,70,30.15,29.65,13,4,21,0.04
2013-12-31,23,15,8,17,10,5,89,79,66,30.20,29.99,13,3,22,0.00
2014-1-1,21,17,13,15,9,6,87,72,55,30.36,30.20,9,2,16,0.00
2014-1-2,17,14,5,14,11,1,89,86,81,30.27,29.81,7,1,11,0.00